Hoquiam, WA
on Tuesday, November 20, 2012

Tuesday
Previous Day Next Day
Daily Summary
 ActualAverageRecord
Temperature
Mean Temperature °F 45°F  
Max Temperature 52°F 50°F 61°F (2002)
Min Temperature 44°F 40°F 23°F (1977)
Degree Days
Heating Degree Days 16 20  
Month to date heating degree days 363  
Cooling Degree Days 0 0  
Month to date cooling degree days 0  
Year to date cooling degree days 23  
Moisture
Dew Point 45°F   
Average Humidity 89    
Maximum Humidity 100    
Minimum Humidity 77    
Precipitation
Precipitation 0.52 in 0.40 in 3.26 in (1959)
Month to date precipitation 7.41  
Year to date precipitation 53.83  
Wind
Wind Speed 10 mph   
Max Wind Speed 34 mph   
Max Gust Speed 44 mph   
Visibility 8 miles   
Events Rain   

Key: T is trace of precipitation, MM is missing value
Source: NWS Daily Summary
Time(PST)TemperatureDew PointHumidity Pressure Visibility Wind DirectionWind SpeedGust SpeedPrecipitationEvents Conditions
12:11 AM 48.2°F 46.4°F 93% 29.66 in 10.0 miles East 3.5 mph - N/A   Overcast
12:31 AM 50.0°F 48.2°F 94% 29.66 in 10.0 miles ESE 8.1 mph - N/A   Mostly Cloudy
12:53 AM 50.0°F 48.0°F 93% 29.67 in 10.0 miles ESE 6.9 mph - N/A   Overcast
1:53 AM 48.9°F 48.0°F 97% 29.66 in 10.0 miles East 5.8 mph - N/A   Overcast
2:46 AM 48.2°F 48.2°F 100% 29.65 in 7.0 miles ENE 6.9 mph - 0.04 in   Overcast
2:53 AM 48.9°F 46.9°F 93% 29.66 in 6.0 miles East 8.1 mph - 0.04 in   Overcast
3:14 AM 50.0°F 46.4°F 87% 29.64 in 10.0 miles ESE 8.1 mph - N/A   Overcast
3:53 AM 48.9°F 46.9°F 93% 29.65 in 10.0 miles East 8.1 mph - N/A   Overcast
4:33 AM 48.2°F 46.4°F 93% 29.63 in 10.0 miles East 9.2 mph - 0.00 in   Mostly Cloudy
4:44 AM 48.2°F 46.4°F 93% 29.62 in 10.0 miles East 9.2 mph - 0.00 in   Mostly Cloudy
4:53 AM 48.0°F 46.0°F 93% 29.63 in 10.0 miles ENE 9.2 mph - 0.00 in   Mostly Cloudy
5:53 AM 46.9°F 45.0°F 93% 29.61 in 7.0 miles ENE 9.2 mph - N/A   Partly Cloudy
6:53 AM 46.0°F 45.0°F 96% 29.58 in 10.0 miles ENE 11.5 mph - N/A   Clear
7:53 AM 46.9°F 44.1°F 90% 29.54 in 10.0 miles ENE 9.2 mph - N/A   Clear
8:53 AM 48.9°F 45.0°F 86% 29.50 in 10.0 miles ENE 15.0 mph - N/A   Overcast
9:53 AM 48.0°F 46.0°F 93% 29.50 in 5.0 miles ENE 15.0 mph - 0.05 in Rain Light Rain
10:53 AM 50.0°F 46.0°F 86% 29.51 in 10.0 miles ESE 17.3 mph 29.9 mph 0.01 in Rain Light Rain
11:37 AM 48.2°F 44.6°F 87% 29.54 in 2.5 miles South 34.5 mph 43.7 mph 0.12 in Rain Rain
11:42 AM 46.4°F 42.8°F 87% 29.53 in 1.2 miles South 28.8 mph 43.7 mph 0.15 in Rain Heavy Rain
11:47 AM 48.2°F 44.6°F 87% 29.52 in 2.5 miles South 24.2 mph 40.3 mph 0.16 in Rain Light Rain
11:53 AM 48.9°F 44.1°F 83% 29.54 in 8.0 miles South 23.0 mph 34.5 mph 0.16 in Rain Light Rain
12:53 PM 52.0°F 45.0°F 77% 29.57 in 10.0 miles South 25.3 mph 35.7 mph 0.00 in   Scattered Clouds
1:53 PM 51.1°F 45.0°F 80% 29.59 in 10.0 miles SSW 20.7 mph 27.6 mph N/A   Partly Cloudy
2:53 PM 51.1°F 45.0°F 80% 29.61 in 10.0 miles South 13.8 mph - N/A   Mostly Cloudy
3:53 PM 50.0°F 44.1°F 80% 29.62 in 6.0 miles SSE 27.6 mph 32.2 mph 0.02 in Rain Light Rain
4:53 PM 50.0°F 43.0°F 77% 29.63 in 10.0 miles SSW 21.9 mph 28.8 mph 0.02 in   Overcast
5:53 PM 48.0°F 43.0°F 83% 29.65 in 10.0 miles SSE 6.9 mph - N/A   Scattered Clouds
6:53 PM 48.0°F 44.1°F 86% 29.65 in 10.0 miles SSE 3.5 mph - N/A   Mostly Cloudy
7:35 PM 46.4°F 44.6°F 93% 29.62 in 10.0 miles NNE 3.5 mph - N/A   Overcast
7:53 PM 46.9°F 44.1°F 90% 29.62 in 10.0 miles NNE 5.8 mph - N/A   Mostly Cloudy
8:53 PM 46.9°F 44.1°F 90% 29.61 in 10.0 miles ENE 8.1 mph - N/A   Overcast
9:53 PM 48.0°F 44.1°F 86% 29.60 in 10.0 miles East 9.2 mph - 0.02 in   Overcast
10:53 PM 46.0°F 41.0°F 83% 29.58 in 10.0 miles SE 9.2 mph - 0.03 in Rain Light Rain
11:53 PM 44.1°F 42.1°F 93% 29.56 in 5.0 miles ENE 4.6 mph - 0.17 in Rain Rain
Moon Phase
Nov. 20 Nov. 28 Dec. 06 Dec. 13 Dec. 20
Sunrise:07:26 AM (PST) Moon Rise:12:50 PM (PST)
Sunset:04:35 PM (PST) Moon Set:No Moon Set/

Copyright © 2014 The Weather Underground, Inc.